Overview Statistics Trail Chart Weather Telemetry Raw packets
 

This is the latest recevied weather packets stored in our database for station/object N5ATR. If no packets are shown the sender has not sent any weather packets the latest 10 day(s).

<< 96 97 98 99 100 101 102 >>
Time Temp. Humidity Pressure Rain* Wind** Luminosity Snow
1787971975 24.44° C 39% 1024.5 hPa 0 mm - 0 W/m² -
1787971670 24.44° C 39% 1024.6 hPa 0 mm - 0 W/m² -
1787971366 24.44° C 38% 1024.5 hPa 0 mm - 0 W/m² -
1787971062 25° C 38% 1024.5 hPa 0 mm - 0 W/m² -
1787970760 25° C 38% 1024.2 hPa 0 mm - 0 W/m² -
1787970460 25.56° C 37% 1024.4 hPa 0 mm - 0 W/m² -
1787970159 25.56° C 37% 1024.4 hPa 0 mm - 0 W/m² -
1787969860 24.44° C 37% 1024 hPa 0 mm - 0 W/m² -
1787969558 23.89° C 36% 1024 hPa 0 mm - 0 W/m² -
1787969258 24.44° C 35% 1024 hPa 0 mm - 0 W/m² -
1787968958 25° C 34% 1024 hPa 0 mm - 0 W/m² -
1787968652 25° C 34% 1023.8 hPa 0 mm - 0 W/m² -
1787968347 25° C 34% 1023.6 hPa 0 mm - 0 W/m² -
1787968042 24.44° C 34% 1023.8 hPa 0 mm - 0 W/m² -
1787967741 24.44° C 34% 1024 hPa 0 mm - 1 W/m² -
1787967439 25° C 34% 1023.9 hPa 0 mm - 2 W/m² -
1787967134 25° C 33% 1024 hPa 0 mm - 3 W/m² -
1787966830 25.56° C 33% 1024.1 hPa 0 mm - 5 W/m² -
1787966527 26.11° C 33% 1024 hPa 0 mm - 8 W/m² -
1787966226 26.67° C 32% 1024.1 hPa 0 mm - 12 W/m² -
1787965921 26.67° C 32% 1023.8 hPa 0 mm - 11 W/m² -
1787965616 26.67° C 31% 1023.9 hPa 0 mm - 12 W/m² -
1787965315 26.67° C 32% 1024 hPa 0 mm - 13 W/m² -
1787965014 26.67° C 32% 1023.9 hPa 0 mm - 14 W/m² -
1787964714 27.22° C 31% 1023.9 hPa 0 mm - 15 W/m² -

* Rain latest hour (hover to see other rain measurements)
** Current wind speed in m/s (hover to see current wind gust speed)